Jacksonville, FL

5:11 PM EDT on April 26, 2018 (GMT -0400)
Jacksonville International

Weather History for KJAX - October, 2012

Change the Weather History Date:

Thursday, October 25, 2012

  Actual Average Record
Temperature  
Mean Temperature 75 °F 68 °F  
Max Temperature 82 °F 78 °F 89 °F (2010)
Min Temperature 67 °F 57 °F 38 °F (2006)
Degree Days  
Heating Degree Days 0 2  
Month to date heating degree days 2 14  
Since 1 July heating degree days 2 14  
Cooling Degree Days 10 4  
Month to date cooling degree days 204 175  
Year to date cooling degree days 2716 2561  
Growing Degree Days 24 (Base 50)    
Moisture  
Dew Point 68 °F    
Average Humidity 78    
Maximum Humidity 97    
Minimum Humidity 58    
Precipitation  
Precipitation T in 0.08 in 4.76 in (1921)
Month to date precipitation 3.01 3.49  
Year to date precipitation 50.83 47.04  
Snow  
Snow 0.00 in 0.00 in 0.00 in (2002)
Month to date snowfall 0.0 0.0  
Since 1 July snowfall 0.0 0.0  
Since 1 September snowfall 0.0 0.0  
Snow Depth 0.00 in    
Sea Level Pressure  
Sea Level Pressure 29.96 in    
Wind  
Wind Speed 10 mph (NE)    
Max Wind Speed 23 mph    
Max Gust Speed 29 mph    
Visibility 8 miles    
Events      
T = Trace of Precipitation, MM = Missing Value Source: NWS Daily Summary

Daily Weather History Graph

Daily Weather History Graph

Search for Another Location

Airport or City:

Astronomy

Oct. 25, 2012 Rise Set
Actual Time 7:36 AM EDT 6:44 PM EDT
Civil Twilight 7:11 AM EDT 7:09 PM EDT
Nautical Twilight 6:43 AM EDT 7:37 PM EDT
Astronomical Twilight 6:15 AM EDT 8:05 PM EDT
Moon 4:17 PM EDT (10/25) 3:46 AM EDT (10/25)
Length of Visible Light 11h 57m
Length of Day
11h 08m
Waxing Gibbous, 84% of the Moon is Illuminated
Oct 25
Waxing Gibbous
Oct 29
Full
Nov 6
Last Quarter
Nov 13
New
Nov 20
First Quarter

Hourly Weather History & Observations

Time (EDT) Temp. Heat Index Dew Point Humidity Pressure Visibility Wind Dir Wind Speed Gust Speed Precip Events Conditions
12:56 AM 69.1 °F - 68.0 °F 96% 30.01 in 8.0 mi North 3.5 mph - N/A   Scattered Clouds
1:56 AM 69.1 °F - 66.9 °F 93% 29.99 in 6.0 mi North 3.5 mph - N/A   Clear
2:56 AM 68.0 °F - 66.9 °F 96% 29.97 in 6.0 mi North 4.6 mph - N/A   Partly Cloudy
3:56 AM 68.0 °F - 66.0 °F 93% 29.96 in 6.0 mi North 4.6 mph - N/A   Mostly Cloudy
4:56 AM 68.0 °F - 66.9 °F 96% 29.96 in 6.0 mi North 3.5 mph - N/A   Mostly Cloudy
5:56 AM 68.0 °F - 66.9 °F 96% 29.97 in 6.0 mi North 4.6 mph - N/A   Mostly Cloudy
6:56 AM 68.0 °F - 66.9 °F 96% 29.98 in 7.0 mi North 3.5 mph - N/A   Mostly Cloudy
7:56 AM 68.0 °F - 66.9 °F 96% 29.98 in 5.0 mi North 4.6 mph - N/A   Mostly Cloudy
8:56 AM 71.6 °F - 68.0 °F 88% 29.99 in 7.0 mi NNE 4.6 mph - N/A   Mostly Cloudy
9:56 AM 73.9 °F - 70.0 °F 87% 30.00 in 8.0 mi NE 5.8 mph - N/A   Mostly Cloudy
10:56 AM 79.0 °F - 69.1 °F 72% 29.99 in 10.0 mi East 11.5 mph - N/A   Mostly Cloudy
11:56 AM 80.1 °F 82.3 °F 66.9 °F 64% 29.99 in 10.0 mi East 13.8 mph 25.3 mph N/A   Mostly Cloudy
12:56 PM 81.0 °F 83.8 °F 68.0 °F 65% 29.97 in 10.0 mi ENE 20.7 mph 26.5 mph N/A   Mostly Cloudy
1:56 PM 82.0 °F 84.5 °F 66.9 °F 60% 29.95 in 10.0 mi ENE 18.4 mph - N/A   Mostly Cloudy
2:56 PM 81.0 °F 83.3 °F 66.9 °F 62% 29.94 in 10.0 mi NE 19.6 mph 23.0 mph N/A   Overcast
3:56 PM 80.1 °F 82.7 °F 68.0 °F 67% 29.93 in 10.0 mi ENE 16.1 mph 23.0 mph N/A   Overcast
4:56 PM 80.1 °F 82.7 °F 68.0 °F 67% 29.93 in 10.0 mi ENE 16.1 mph - N/A   Overcast
5:56 PM 79.0 °F - 68.0 °F 69% 29.94 in 10.0 mi ENE 13.8 mph - N/A   Mostly Cloudy
6:56 PM 77.0 °F - 68.0 °F 74% 29.95 in 10.0 mi NE 11.5 mph - N/A   Mostly Cloudy
7:56 PM 75.9 °F - 68.0 °F 76% 29.95 in 10.0 mi NE 10.4 mph 19.6 mph N/A   Mostly Cloudy
8:56 PM 71.6 °F - 69.8 °F 94% 29.94 in 10.0 mi NNE 8.1 mph - N/A   Overcast
9:56 PM 73.0 °F - 70.0 °F 90% 29.93 in 9.0 mi NNE 8.1 mph - N/A   Overcast
10:56 PM 73.0 °F - 70.0 °F 90% 29.94 in 9.0 mi NNE 6.9 mph - N/A   Overcast
11:56 PM 73.4 °F - 69.8 °F 88% 29.92 in 9.0 mi NNE 8.1 mph - N/A   Overcast